Location: Home
(42.5358°N, 72.7383°W)
Time: 10:52:09
(UTC-05:00)

Courier 1B - Pass Details

Date: 08 December 2021
Orbit: 962 x 1209 km, 28.3° (Epoch: 21 January)

Event Time Altitude Azimuth Distance (km) Brightness Sun altitude
Rises 14:06:38 0° 222° (SW) 4,101 12.5 16.8°
Reaches altitude 10° 14:10:23 10° 206° (SSW) 3,132 12.5 16.4°
Maximum altitude 14:15:40 20° 163° (SSE) 2,445 10.3 15.8°
Drops below altitude 10° 14:20:52 10° 120° (ESE) 3,070 10.1 15.2°
Sets 14:24:29 0° 104° (ESE) 3,995 10.5 14.8°
